Orbital Elements at Epoch 2459000.5 (2020-May-31.0) TDB
Reference: JPL 33 (heliocentric ecliptic J2000)
Element | Value | Uncertainty (1-sigma) | Units |
e | .2172576002732186 | 3.7761e-08 | |
a | 2.366365411097632 | 6.0661e-09 | au |
q | 1.852254540513012 | 9.0932e-08 | au |
i | 2.397571949728396 | 3.8813e-06 | deg |
node | 160.0247747746436 | 6.4116e-05 | deg |
peri | 180.1913345288787 | 6.46e-05 | deg |
M | 68.77596624210469 | 6.0931e-06 | deg |
tp | 2458746.487353306391 (2019-Sep-19.98735331) | 2.2648e-05 | TDB |
period | 1329.600408488583 3.64 | 5.1126e-06 1.4e-08 | d yr |
n | .2707580395595909 | 1.0411e-09 | deg/d |
Q | 2.880476281682252 | 7.3841e-09 | au |
|
| | Orbit Determination Parameters
Additional Information
|